Overview Statistics Trail Chart Weather Telemetry Raw packets
 

This is the latest recevied weather packets stored in our database for station/object OK1FET-5. If no packets are shown the sender has not sent any weather packets the latest 10 day(s).

<< 31 32 33 34 35 36 37 >>
Time Temp. Humidity Pressure Rain* Wind** Luminosity Snow
1788085640 28.89° C 41% 1016.5 hPa - - - -
1788085044 28.33° C 42% 1016.5 hPa - - - -
1788084448 28.89° C 41% 1016.5 hPa - - - -
1788083853 28.89° C 43% 1016.7 hPa - - - -
1788083257 29.44° C 42% 1016.6 hPa - - - -
1788082661 28.89° C 41% 1016.8 hPa - - - -
1788082065 28.89° C 43% 1016.8 hPa - - - -
1788081469 28.89° C 43% 1016.9 hPa - - - -
1788080874 28.33° C 44% 1016.8 hPa - - - -
1788080278 28.33° C 45% 1017 hPa - - - -
1788079086 27.78° C 47% 1017.1 hPa - - - -
1788078490 26.67° C 46% 1017 hPa - - - -
1788077895 27.22° C 49% 1017.1 hPa - - - -
1788077299 27.22° C 49% 1017.2 hPa - - - -
1788076107 25.56° C 53% 1017.2 hPa - - - -
1788075512 26.11° C 51% 1017.1 hPa - - - -
1788074916 25.56° C 59% 1017.2 hPa - - - -
1788074320 24.44° C 61% 1017.2 hPa - - - -
1788073724 22.78° C 60% 1017.2 hPa - - - -
1788073128 22.22° C 64% 1017.1 hPa - - - -
1788072533 22.22° C 68% 1017.1 hPa - - - -
1788071937 20.56° C 65% 1017 hPa - - - -
1788070745 20.56° C 70% 1017 hPa - - - -
1788070163 18.89° C 71% 1017.2 hPa - - - -
1788069554 17.78° C 79% 1017.1 hPa - - - -

* Rain since midnight (hover to see other rain measurements)
** Current wind speed in m/s (hover to see current wind gust speed)